Ft Lauderdale, FL

11:07 PM EST on November 19, 2019 (GMT -0500)
Fort Lauderdale-Hollywood International

Weather History for KFLL - August, 2019

Change the Weather History Date:

Sunday, August 25, 2019

  Actual Average Record
Temperature  
Mean Temperature 85 °F 84 °F  
Max Temperature 91 °F 90 °F 98 °F (1924)
Min Temperature 79 °F 78 °F 69 °F (1920)
Degree Days  
Heating Degree Days 0 0  
Month to date heating degree days 0 0  
Since 1 June heating degree days 0 0  
Since 1 July heating degree days 0 0  
Cooling Degree Days 20 19  
Month to date cooling degree days 467 494  
Year to date cooling degree days 3273 3053  
Since 1 June cooling degree days 1658 1635  
Growing Degree Days 36 (Base 50)    
Moisture  
Dew Point 76 °F    
Average Humidity 76    
Maximum Humidity 91    
Minimum Humidity 60    
Precipitation  
Precipitation 0.05 in 0.26 in 2.56 in (2017)
Month to date precipitation 8.63 5.83  
Year to date precipitation 37.29 39.46  
Snow  
Snow 0.00 in - - ()
Month to date snowfall 0.0  
Since 1 June snowfall 0.0  
Since 1 July snowfall 0.0  
Snow Depth 0.00 in    
Sea Level Pressure  
Sea Level Pressure 29.93 in    
Wind  
Wind Speed 5 mph (SW)    
Max Wind Speed 14 mph    
Max Gust Speed 16 mph    
Visibility 10 miles    
Events Rain , Thunderstorm    
T = Trace of Precipitation, MM = Missing Value Source: NWS Daily Summary

Daily Weather History Graph

Daily Weather History Graph

Search for Another Location

Airport or City:

Astronomy

Aug. 25, 2019 Rise Set
Actual Time 6:57 AM EDT 7:47 PM EDT
Civil Twilight 6:33 AM EDT 8:11 PM EDT
Nautical Twilight 6:06 AM EDT 8:38 PM EDT
Astronomical Twilight 5:37 AM EDT 9:07 PM EDT
Moon 1:48 AM EDT (8/25) 3:47 PM EDT (8/25)
Length of Visible Light 13h 37m
Length of Day
12h 49m
Waning Crescent, 29% of the Moon is Illuminated
Aug 25
Waning Crescent
Aug 30
New
Sep 5
First Quarter
Sep 14
Full
Sep 21
Last Quarter

Hourly Weather History & Observations

Time (EDT) Temp. Heat Index Dew Point Humidity Pressure Visibility Wind Dir Wind Speed Gust Speed Precip Events Conditions
12:53 AM 81.0 °F 87.9 °F 77.0 °F 88% 29.93 in 10.0 mi South 5.8 mph - N/A   Partly Cloudy
1:53 AM 81.0 °F 87.9 °F 77.0 °F 88% 29.91 in 10.0 mi SW 4.6 mph - N/A   Partly Cloudy
2:53 AM 80.1 °F 85.8 °F 77.0 °F 90% 29.91 in 10.0 mi SW 6.9 mph - N/A   Partly Cloudy
3:53 AM 80.1 °F 85.8 °F 77.0 °F 90% 29.90 in 10.0 mi SSW 4.6 mph - N/A   Partly Cloudy
4:53 AM 80.1 °F 85.8 °F 77.0 °F 90% 29.89 in 10.0 mi Calm Calm - N/A   Partly Cloudy
5:53 AM 80.1 °F 85.8 °F 77.0 °F 90% 29.90 in 10.0 mi South 4.6 mph - N/A   Partly Cloudy
6:53 AM 80.1 °F 85.8 °F 77.0 °F 90% 29.91 in 10.0 mi SSW 4.6 mph - N/A   Partly Cloudy
7:53 AM 81.0 °F 87.9 °F 77.0 °F 88% 29.93 in 10.0 mi SW 5.8 mph - N/A   Scattered Clouds
8:53 AM 84.0 °F 94.8 °F 78.1 °F 82% 29.95 in 10.0 mi SSW 5.8 mph - N/A   Scattered Clouds
9:53 AM 86.0 °F 96.9 °F 77.0 °F 74% 29.95 in 10.0 mi WSW 5.8 mph - N/A   Scattered Clouds
10:53 AM 89.1 °F 100.2 °F 75.9 °F 65% 29.96 in 10.0 mi WSW 6.9 mph - N/A   Scattered Clouds
11:53 AM 91.0 °F 101.6 °F 75.0 °F 59% 29.94 in 10.0 mi SSW 6.9 mph - N/A   Mostly Cloudy
12:26 PM 88.0 °F 98.5 °F 75.9 °F 67% 29.95 in 10.0 mi WSW 12.7 mph - 0.01 in Rain , Thunderstorm Light Rain
12:39 PM 86.0 °F 96.0 °F 75.9 °F 72% 29.95 in 8.0 mi WSW 4.6 mph - 0.01 in Rain Light Rain
12:45 PM 87.1 °F 97.3 °F 75.9 °F 69% 29.95 in 7.0 mi WSW 6.9 mph - 0.01 in Rain , Thunderstorm Thunderstorms and Rain
12:53 PM 86.0 °F 96.9 °F 77.0 °F 74% 29.95 in 9.0 mi South 12.7 mph - 0.01 in Rain , Thunderstorm Light Thunderstorms and Rain
1:23 PM 84.0 °F 96.0 °F 79.0 °F 85% 29.95 in 10.0 mi SSW 5.8 mph - 0.04 in Rain Light Rain
1:53 PM 84.0 °F 94.8 °F 78.1 °F 82% 29.93 in 10.0 mi SSW 8.1 mph - 0.04 in   Scattered Clouds
2:53 PM 89.1 °F 103.2 °F 78.1 °F 70% 29.93 in 10.0 mi West 8.1 mph - N/A   Mostly Cloudy
3:53 PM 87.1 °F 97.3 °F 75.9 °F 69% 29.91 in 10.0 mi South 8.1 mph - N/A   Mostly Cloudy
4:38 PM 86.0 °F 96.9 °F 77.0 °F 74% 29.90 in 10.0 mi NNW 5.8 mph - N/A Thunderstorm Thunderstorm
4:53 PM 84.0 °F 91.2 °F 73.9 °F 72% 29.91 in 10.0 mi NW 6.9 mph - N/A Thunderstorm Thunderstorm
5:15 PM 84.9 °F 92.1 °F 73.9 °F 69% 29.91 in 10.0 mi NNW 6.9 mph - N/A   Mostly Cloudy
5:53 PM 84.9 °F 93.3 °F 75.0 °F 72% 29.91 in 10.0 mi North 4.6 mph - N/A   Mostly Cloudy
6:53 PM 84.9 °F 92.1 °F 73.9 °F 69% 29.91 in 10.0 mi South 3.5 mph - N/A Thunderstorm Mostly Cloudy
7:35 PM 84.0 °F 91.2 °F 73.9 °F 72% 29.92 in 10.0 mi South 9.2 mph - N/A   Mostly Cloudy
7:53 PM 82.9 °F 89.4 °F 73.9 °F 74% 29.91 in 10.0 mi SSE 8.1 mph - N/A   Mostly Cloudy
8:53 PM 82.0 °F 88.6 °F 75.0 °F 79% 29.93 in 10.0 mi Calm Calm - N/A   Mostly Cloudy
9:53 PM 82.0 °F 88.6 °F 75.0 °F 79% 29.95 in 10.0 mi Calm Calm - N/A   Scattered Clouds
10:53 PM 82.0 °F 89.4 °F 75.9 °F 82% 29.95 in 10.0 mi Calm Calm - N/A   Partly Cloudy
11:53 PM 82.0 °F 89.4 °F 75.9 °F 82% 29.95 in 10.0 mi Calm Calm - N/A   Clear